Вернуться в каталог

OASIS ALPHA

АктивенНаукаSSO
NORAD 69880·PAYLOAD·🇩🇪 Germany
Это название спутника еще не подтверждено официальными источниками.

Запущен Jul 7, 2026 с Vandenberg Space Force Base

Loading…

Ближайшие Пролёты (ближайшие 24 часа)

TLE

СвежийSource: Space-Track

Эпоха: Sep 14, 2026, 04:37 UTC

1 69880U 26156M   26257.19279434  .00001554  00000-0  16194-3 0  9991
2 69880  97.7374 156.3535 0003163 246.2680 113.8207 14.91200146 10268

Отслеживайте OASIS ALPHA в реальном времени с AllMySat

Download on the App Store